Tracking 28052 objects as of 22-Sep-2023
HD Live streaming from Space Station
objects crossing your sky now

THORAD AGENA D DEB

Track THORAD AGENA D DEB now!
10-day predictions


NORAD ID: 19150
Int'l Code: 1970-025PS
Perigee: 882.8 km
Apogee: 922.9 km
Inclination: 100.3 °
Period: 102.9 minutes
Semi major axis: 7273 km
RCS: 0.0118 m2 (small)
Launch date: April 8, 1970
Source: United States (US)
Launch site: AIR FORCE WESTERN TEST RANGE (AFWTR)

Note: This is SATELLITE DEBRIS
Your satellite tracking list
Your tracking list is empty




NASA's NSSDC Master Catalog

Two Line Element Set (TLE):
1 19150U 70025PS  23264.88734028  .00007912  00000-0  54461-2 0  9998
2 19150 100.3452  45.7788 0027596 316.7848 194.8778 13.99443304764290
Source of the keplerian elements: AFSPC